This is the latest recevied weather packets stored in our database for station/object OK1FET-15. If no packets are shown the sender has not sent any weather packets the latest 10 day(s).
| Time | Temp. | Humidity | Pressure | Rain* | Wind** | Luminosity | Snow |
|---|---|---|---|---|---|---|---|
| 1777872683 | 12.78° C | 74% | 1013.8 hPa | - | - | - | - |
| 1777872358 | 12.78° C | 73% | 1013.7 hPa | - | - | - | - |
| 1777872033 | 12.78° C | 73% | 1013.6 hPa | - | - | - | - |
| 1777871709 | 12.78° C | 73% | 1013.5 hPa | - | - | - | - |
| 1777871384 | 12.78° C | 73% | 1013.5 hPa | - | - | - | - |
| 1777871059 | 12.22° C | 73% | 1013.5 hPa | - | - | - | - |
| 1777870735 | 12.22° C | 72% | 1013.5 hPa | - | - | - | - |
| 1777870410 | 11.67° C | 72% | 1013.4 hPa | - | - | - | - |
| 1777864133 | 9.44° C | 73% | 1013.2 hPa | - | - | - | - |
| 1777863809 | 9.44° C | 72% | 1013.2 hPa | - | - | - | - |
| 1777863485 | 9.44° C | 69% | 1013.1 hPa | - | - | - | - |
| 1777863160 | 10° C | 68% | 1013 hPa | - | - | - | - |
| 1777862836 | 10° C | 69% | 1013.1 hPa | - | - | - | - |
| 1777862511 | 10° C | 71% | 1013.1 hPa | - | - | - | - |
| 1777862204 | 10° C | 68% | 1013 hPa | - | - | - | - |
| 1777861897 | 10.56° C | 72% | 1013.2 hPa | - | - | - | - |
| 1777861590 | 10.56° C | 66% | 1013.1 hPa | - | - | - | - |
| 1777861283 | 10.56° C | 69% | 1013.4 hPa | - | - | - | - |
| 1777860976 | 10.56° C | 66% | 1013.4 hPa | - | - | - | - |
| 1777860669 | 10.56° C | 70% | 1013.2 hPa | - | - | - | - |
| 1777860362 | 10.56° C | 66% | 1013 hPa | - | - | - | - |
| 1777860054 | 10.56° C | 67% | 1013 hPa | - | - | - | - |
| 1777859747 | 10.56° C | 68% | 1012.8 hPa | - | - | - | - |
| 1777859440 | 11.11° C | 64% | 1012.7 hPa | - | - | - | - |
| 1777859133 | 11.11° C | 63% | 1012.6 hPa | - | - | - | - |
* Rain since midnight (hover to see other rain measurements)
** Current wind speed in m/s (hover to see current wind gust speed)